STARLINK-31894

decayed
NORAD ID: 59665 Int'l Des: 2024-084 Owner: SPXS Country: US Constellation: starlink
LEOCIRCULAR
グループ

STARLINK-31894について

説明を読み込み中...

高度履歴

Altitude vs Time

uPlot chart will show altitude changes over time

軌道要素

1 59665U 24084M 24263.09663046 .09667759 90625-5 20651-2 0 9992
2 59665 42.9799 180.3365 0006562 252.7832 240.2526 16.29697157 22409
Epoch: Sep 19, 2024 • Age: 8721 hours

現在のステータス

Position data unavailable
打ち上げ日 May 6, 2024
運用期間 1.3 years
落下予定日 Sep 19, 2024
タイプ internet

技術仕様

分類 Payload
質量 730.00 kg
乾燥質量 700.00 kg
総質量 730.00 kg
長さ 0.30 m
直径 4.10 m
スパン 29.00 m
形状 Box + pan
製造者 SPXS
バスタイプ Starlink V2M
フェーズステータス Unknown Transfer Status
所有者/国 SPXS/US

大規模コンステレーション

Loading constellations...